Flag for Cambodia Weather past 2 weeks in Phnom Penh, Cambodia

Now
86 °F

Passing clouds.


Feels Like: 93 °F
Forecast: 79 / 89 °F
Wind: 10 mph from Southwest

Location: Phnom-Penh / Pochentong

Current Time: Jul 5, 2015 at 10:15:05 PM

Latest Report: Jul 5, 2015 at 9:30 PM


Visibility: 5 mi

Pressure: 29.68 "Hg

Humidity: 66%

Dew point: 73 °F

Location of Phnom PenhLocation

Historic Weather in Phnom Penh — Graph

°F

Phnom Penh temperature yesterday

Maximum temperature yesterday: 97 °F (at 12:30 PM)
Minimum temperature yesterday: 84 °F (at 12:30 AM)
Average temperature yesterday: 90 °F

Past Weeks' High & Low Weather Summary

 TemperatureHumidityPressure
High133 °F (Jun 29, 4:00 PM)100% (Jun 23, 5:30 PM)29.89 "Hg (Jun 23, 5:30 PM)
Low77 °F (Jun 23, 5:30 PM)15% (Jun 29, 4:00 PM)29.59 "Hg (Jul 3, 3:00 PM)
Average87 °F65%29.74 "Hg
* Reported Jun 20 9:00 PM — Jul 5 9:00 PM, Phnom Penh, Weather by CustomWeather, © 2015

Note: Actual official high and low records may vary slightly from our data, if they occured in-between our weather recording intervals... More about our weather records

Advertising

Phnom Penh weather history for previous 24 hours

 ConditionsComfort  
Time TempWeatherWind HumidityBarometerVisibility
9:00 PM
Sun, Jul 5
86 °FPassing clouds.9 mph66%29.68 "Hg6 mi
8:30 PM86 °FPassing clouds.9 mph66%29.65 "Hg6 mi
8:00 PM86 °FPassing clouds.10 mph66%29.62 "Hg6 mi
7:30 PM86 °FPartly cloudy.10 mph62%29.62 "HgN/A
7:00 PM86 °FPartly cloudy.10 mph62%29.62 "HgN/A
6:30 PM88 °FPartly cloudy.10 mph59%29.62 "HgN/A
6:00 PM90 °FBroken clouds.14 mph59%29.59 "HgN/A
5:30 PM90 °FBroken clouds.13 mph59%29.59 "HgN/A
5:00 PM90 °FBroken clouds.15 mph59%29.59 "HgN/A
4:30 PM93 °FBroken clouds.15 mph47%29.59 "HgN/A
4:00 PM93 °FBroken clouds.13 mph47%29.59 "HgN/A
3:30 PM95 °FBroken clouds.16 mph50%29.59 "HgN/A
3:00 PM95 °FBroken clouds.16 mph50%29.59 "HgN/A
2:30 PM95 °FScattered clouds.16 mph50%29.59 "HgN/A
2:00 PM97 °FScattered clouds.16 mph44%29.62 "HgN/A
1:30 PM95 °FScattered clouds.15 mph47%29.62 "HgN/A
1:00 PM97 °FScattered clouds.13 mph44%29.62 "HgN/A
11:30 AM95 °FScattered clouds.14 mph47%29.65 "HgN/A
10:30 AM93 °FPassing clouds.10 mph49%29.68 "HgN/A
10:00 AM91 °FScattered clouds.10 mph56%29.68 "HgN/A
9:30 AM91 °FPassing clouds.14 mph56%29.68 "HgN/A
9:00 AM91 °FPassing clouds.13 mph56%29.68 "HgN/A
8:30 AM90 °FScattered clouds.14 mph59%29.68 "HgN/A
8:00 AM88 °FScattered clouds.9 mph62%29.68 "HgN/A
7:30 AM86 °FScattered clouds.7 mph66%29.68 "Hg6 mi
7:00 AM86 °FScattered clouds.7 mph66%29.68 "Hg6 mi
6:30 AM84 °FScattered clouds.6 mph70%29.68 "Hg6 mi
6:00 AM82 °FPartly sunny.6 mph79%29.68 "Hg6 mi
1:00 AM86 °FPassing clouds.7 mph66%29.65 "Hg6 mi
12:30 AM86 °FPassing clouds.7 mph66%29.68 "Hg6 mi
12:00 AM86 °FPassing clouds.10 mph66%29.68 "Hg6 mi
11:30 PM
Sat, Jul 4
86 °FPassing clouds.8 mph66%29.68 "Hg6 mi
11:00 PM86 °FPassing clouds.9 mph66%29.68 "Hg6 mi
10:30 PM86 °FPassing clouds.10 mph66%29.68 "Hg6 mi
10:00 PM86 °FPassing clouds.10 mph70%29.65 "Hg6 mi
Weather by CustomWeather, © 2015

See weather overviewHow to use our weather pages